Weather History for KNTU - January, 2014

Change the Weather History Date:

Tuesday, January 14, 2014

  Actual Average Record
Temperature  
Mean Temperature 51 °F -  
Max Temperature 61 °F 46 °F 73 °F (2007)
Min Temperature 39 °F 29 °F 23 °F (1997)
Degree Days  
Heating Degree Days 14    
Growing Degree Days 1 (Base 50)    
Moisture  
Dew Point 49 °F    
Average Humidity 91    
Maximum Humidity 100    
Minimum Humidity 64    
Precipitation  
Precipitation 0.47 in - - ()
Sea Level Pressure  
Sea Level Pressure 29.84 in    
Wind  
Wind Speed 9 mph (WSW)    
Max Wind Speed 22 mph    
Max Gust Speed 30 mph    
Visibility 6 miles    
Events Fog , Rain    
Averages and records for this station are not official NWS values.
T = Trace of Precipitation, MM = Missing Value Source: NWS Daily Summary

Daily Weather History Graph

Daily Weather History Graph

Search for Another Location

Airport or City:

Trip Planner

Search our weather history database for the weather conditions in past years. The results will help you decide how hot, cold, wet, or windy it might be!

Date:

Astronomy

Jan. 14, 2014 Rise Set
Actual Time 7:16 AM EST 5:10 PM EST
Civil Twilight 6:47 AM EST 5:38 PM EST
Nautical Twilight 6:16 AM EST 6:10 PM EST
Astronomical Twilight 5:44 AM EST 6:41 PM EST
Moon 4:13 PM EST (1/14) 5:49 AM EST (1/14)
Length of Visible Light 10h 50m
Length of Day
9h 54m
Waxing Gibbous, 98% of the Moon is Illuminated
Jan 14
Waxing Gibbous
Jan 15
Full
Jan 24
Last Quarter
Jan 30
New
Feb 6
First Quarter

Hourly Weather History & Observations

Time (EST) Temp. Windchill Dew Point Humidity Pressure Visibility Wind Dir Wind Speed Gust Speed Precip Events Conditions
12:56 AM 57.0 °F - 45.0 °F 64% 29.96 in 10.0 mi South 5.8 mph - N/A   Overcast
1:56 AM 57.0 °F - 46.0 °F 67% 29.94 in 10.0 mi South 5.8 mph - N/A   Overcast
2:56 AM 55.9 °F - 46.9 °F 72% 29.90 in 10.0 mi SSE 8.1 mph - N/A   Overcast
3:56 AM 55.9 °F - 48.0 °F 75% 29.88 in 10.0 mi SSE 6.9 mph - N/A   Overcast
4:56 AM 57.0 °F - 50.0 °F 77% 29.88 in 10.0 mi SSW 9.2 mph - N/A   Overcast
5:12 AM 57.0 °F - 51.1 °F 81% 29.87 in 10.0 mi SSW 9.2 mph - 0.00 in Rain Light Rain
5:34 AM 57.0 °F - 51.1 °F 81% 29.87 in 10.0 mi South 9.2 mph - 0.00 in   Overcast
5:42 AM 57.0 °F - 51.1 °F 81% 29.86 in 10.0 mi South 9.2 mph - 0.00 in Rain Light Rain
5:56 AM 57.0 °F - 52.0 °F 83% 29.87 in 10.0 mi SSW 6.9 mph - 0.00 in Rain Light Rain
6:56 AM 55.9 °F - 53.1 °F 90% 29.86 in 6.0 mi South 5.8 mph - 0.02 in Rain Light Rain
7:56 AM 55.9 °F - 54.0 °F 93% 29.83 in 4.0 mi South 6.9 mph - 0.07 in Rain Light Rain
8:56 AM 55.9 °F - 54.0 °F 93% 29.84 in 6.0 mi South 5.8 mph - 0.02 in Rain Light Rain
9:30 AM 55.9 °F - 54.0 °F 93% 29.83 in 6.0 mi South 6.9 mph - 0.02 in Rain Light Rain
9:56 AM 55.9 °F - 54.0 °F 93% 29.83 in 6.0 mi South 6.9 mph - 0.03 in Rain Light Rain
10:56 AM 57.0 °F - 55.0 °F 93% 29.80 in 6.0 mi South 10.4 mph - 0.07 in Rain Light Rain
11:24 AM 57.0 °F - 55.9 °F 96% 29.73 in 3.0 mi SSE 13.8 mph - 0.06 in Rain Light Rain
11:56 AM 59.0 °F - 57.0 °F 93% 29.73 in 5.0 mi SSW 11.5 mph - 0.10 in Rain Light Rain
12:19 PM 59.0 °F - 57.0 °F 93% 29.72 in 6.0 mi SW 11.5 mph - 0.02 in Rain Light Rain
12:56 PM 60.1 °F - 57.9 °F 93% 29.70 in 6.0 mi SSW 10.4 mph - 0.02 in Rain Light Rain
1:23 PM 61.0 °F - 59.0 °F 93% 29.69 in 6.0 mi SSW 11.5 mph - 0.00 in   Overcast
1:56 PM 61.0 °F - 59.0 °F 93% 29.69 in 6.0 mi SW 11.5 mph - 0.00 in   Overcast
2:22 PM 53.1 °F - 51.1 °F 93% 29.73 in 2.5 mi WNW 17.3 mph - 0.03 in   Overcast
2:35 PM 53.1 °F - 51.1 °F 93% 29.72 in 4.0 mi WNW 11.5 mph - 0.06 in Rain Light Rain
2:46 PM 53.1 °F - 51.1 °F 93% 29.74 in 8.0 mi WNW 12.7 mph - 0.07 in Rain Light Rain
2:56 PM 53.1 °F - 51.1 °F 93% 29.75 in 5.0 mi WNW 11.5 mph - 0.07 in Rain Light Rain
3:07 PM 53.1 °F - 51.1 °F 93% 29.76 in 10.0 mi WNW 16.1 mph - 0.00 in Rain Light Rain
3:14 PM 53.1 °F - 51.1 °F 93% 29.76 in 10.0 mi WNW 16.1 mph 25.3 mph 0.00 in   Overcast
3:17 PM 53.1 °F - 50.0 °F 89% 29.77 in 6.0 mi WNW 21.9 mph 26.5 mph 0.00 in Rain Light Rain
3:20 PM 53.1 °F - 50.0 °F 89% 29.77 in 2.0 mi WNW 20.7 mph 29.9 mph 0.00 in Rain Light Rain
3:32 PM - - - N/A% 29.77 in 3.0 mi WNW 12.7 mph 26.5 mph 0.01 in Rain Light Rain
3:43 PM 52.0 °F - 50.0 °F 93% 29.78 in 2.5 mi WNW 13.8 mph - 0.03 in Rain Light Rain
3:56 PM 52.0 °F - 50.0 °F 93% 29.78 in 3.0 mi WNW 10.4 mph - 0.04 in Rain Light Rain
4:13 PM 51.1 °F - 48.9 °F 92% 29.77 in 10.0 mi WNW 8.1 mph - 0.00 in Rain Light Rain
4:21 PM 51.1 °F - 48.9 °F 92% 29.77 in 10.0 mi WNW 5.8 mph - 0.00 in   Overcast
4:41 PM 51.1 °F - 48.9 °F 92% 29.78 in 10.0 mi West 5.8 mph - 0.00 in Rain Light Rain
4:56 PM 51.1 °F - 48.9 °F 92% 29.81 in 10.0 mi WNW 9.2 mph - 0.02 in Rain Light Rain
5:08 PM 51.1 °F - 48.9 °F 92% 29.81 in 10.0 mi WNW 9.2 mph - 0.00 in   Mostly Cloudy
5:16 PM 51.1 °F - 48.9 °F 92% 29.82 in 10.0 mi WNW 9.2 mph - 0.00 in   Overcast
5:30 PM 51.1 °F - 48.9 °F 92% 29.83 in 10.0 mi WNW 13.8 mph - 0.00 in   Overcast
5:36 PM 51.1 °F - 48.0 °F 89% 29.84 in 10.0 mi WNW 9.2 mph 19.6 mph 0.00 in   Overcast
5:40 PM 51.1 °F - 48.0 °F 89% 29.84 in 10.0 mi WNW 10.4 mph 19.6 mph 0.00 in   Mostly Cloudy
5:47 PM 50.0 °F - 48.0 °F 93% 29.85 in 10.0 mi WNW 9.2 mph - 0.00 in   Scattered Clouds
5:56 PM 50.0 °F - 48.0 °F 93% 29.87 in 10.0 mi WNW 8.1 mph - 0.01 in   Partly Cloudy
6:56 PM 48.0 °F - 46.0 °F 93% 29.91 in 10.0 mi WNW 5.8 mph - N/A   Partly Cloudy
7:56 PM 45.0 °F 41.8 °F 44.1 °F 97% 29.93 in 9.0 mi West 5.8 mph - N/A   Partly Cloudy
8:56 PM 45.0 °F 41.8 °F 44.1 °F 97% 29.94 in 7.0 mi SW 5.8 mph - N/A   Clear
9:32 PM 42.1 °F 39.2 °F 41.0 °F 96% 29.95 in 1.8 mi SW 4.6 mph - N/A   Clear
9:34 PM 42.1 °F 39.2 °F 42.1 °F 100% 29.95 in 1.0 mi SW 4.6 mph - N/A   Clear
9:36 PM 42.1 °F 39.2 °F 42.1 °F 100% 29.95 in 0.8 mi SW 4.6 mph - N/A   Mist
9:38 PM 42.1 °F 39.2 °F 42.1 °F 100% 29.95 in 0.5 mi SW 4.6 mph - N/A Fog Fog
9:41 PM 43.0 °F 40.3 °F 42.1 °F 97% 29.95 in 0.2 mi SW 4.6 mph - N/A Fog Fog
9:52 PM 42.8 °F 39.3 °F 42.8 °F 100% 29.95 in 0.8 mi SW 5.8 mph - N/A   Mist
9:54 PM 42.8 °F 39.3 °F 42.8 °F 100% 29.95 in 1.0 mi SW 5.8 mph - N/A   Clear
9:56 PM 43.0 °F 39.5 °F 42.1 °F 97% 29.96 in 1.5 mi SW 5.8 mph - N/A   Clear
10:13 PM 41.0 °F 37.1 °F 39.9 °F 96% 29.96 in 1.5 mi SW 5.8 mph - N/A   Scattered Clouds
10:30 PM 43.0 °F - 42.1 °F 97% 29.96 in 0.5 mi Calm Calm - N/A Fog Fog
10:56 PM 43.0 °F 40.3 °F 43.0 °F 100% 29.97 in 0.5 mi SW 4.6 mph - N/A Fog Fog
11:23 PM 42.1 °F 39.2 °F 41.0 °F 96% 29.97 in 1.0 mi SW 4.6 mph - N/A   Mist
11:56 PM 39.0 °F - 39.0 °F 100% 29.98 in 0.5 mi Calm Calm - N/A Fog Fog